GW0168 Weather Reports


Display with metric or nautical units.
time (UTC)temp
F
wind
direction
speed
MPH
gust
MPH
rain 1hr
in
rain 24hr
in
rain mn
in
humidity
%
barometer
mb
20260508033026 37 0 0.0 3.0 0.00 0.00 0.00 77 1006.6
20260508031526 38 0 1.0 5.0 0.00 0.00 0.00 76 1006.7
20260508030028 38 259 1.0 4.0 0.00 0.00 0.00 74 1006.7
20260508024529 39 360 1.0 4.0 0.00 0.00 0.00 73 1006.7
20260508023034 39 192 1.0 3.0 0.00 0.00 0.00 73 1006.6
20260508021531 39 332 1.0 4.0 0.00 0.00 0.00 74 1006.7
20260508020028 38 0 0.0 0.0 0.00 0.00 0.00 75 1006.6
20260508014532 39 0 0.0 0.0 0.00 0.00 0.00 74 1006.6
20260508013027 39 0 0.0 1.0 0.00 0.00 0.00 73 1006.5
20260508011536 39 0 0.0 0.0 0.00 0.00 0.00 74 1006.5
20260508010033 39 0 0.0 1.0 0.00 0.00 0.00 72 1006.4
20260508004530 39 332 0.0 2.0 0.00 0.00 0.00 72 1006.4
20260508003035 39 0 0.0 1.0 0.00 0.00 0.00 72 1006.2
20260508001528 40 0 0.0 2.0 0.00 0.00 0.00 70 1006.1
20260508000029 40 0 0.0 2.0 0.00 0.00 0.00 70 1006.1
20260507234529 41 0 0.0 2.0 0.00 0.00 0.00 68 1005.9
20260507233028 40 313 0.0 1.0 0.00 0.00 0.00 70 1005.9
20260507231527 41 0 0.0 5.0 0.00 0.00 0.00 67 1005.8
20260507230028 42 332 1.0 4.0 0.00 0.00 0.00 65 1005.8
20260507224530 43 322 1.0 9.0 0.00 0.00 0.00 63 1005.7
20260507223028 43 267 3.0 13.0 0.00 0.00 0.00 61 1005.7
20260507221527 44 244 2.0 8.0 0.00 0.00 0.00 61 1005.7
20260507220030 44 274 3.0 8.0 0.00 0.00 0.00 59 1005.7
20260507214530 44 277 2.0 8.0 0.00 0.00 0.00 64 1005.6
20260507213031 45 214 3.0 10.0 0.00 0.00 0.00 62 1005.5
20260507211529 44 360 2.0 12.0 0.00 0.00 0.00 64 1005.4
20260507210026 44 251 1.0 8.0 0.00 0.00 0.00 71 1005.2
20260507204528 44 280 2.0 10.0 0.00 0.00 0.00 72 1005.3
20260507203030 43 348 2.0 12.0 0.00 0.00 0.00 73 1005.2
20260507201527 44 324 1.0 6.0 0.00 0.00 0.00 70 1005.1
20260507200034 42 228 2.0 8.0 0.00 0.00 0.00 73 1005.3
20260507194526 44 267 4.0 11.0 0.00 0.00 0.00 69 1005.2
20260507193028 46 276 1.0 6.0 0.00 0.00 0.00 71 1004.8
20260507191531 42 279 2.0 11.0 0.00 0.00 0.00 78 1004.9
20260507190037 45 278 3.0 8.0 0.00 0.00 0.00 69 1004.9
20260507184536 42 260 2.0 8.0 0.00 0.00 0.00 75 1005.0
20260507183028 42 326 2.0 6.0 0.00 0.00 0.00 77 1004.7
20260507181528 41 251 2.0 6.0 0.00 0.00 0.00 81 1004.9
20260507180032 44 311 2.0 10.0 0.00 0.00 0.00 66 1004.8
20260507174531 47 275 4.0 8.0 0.00 0.00 0.00 56 1004.7
20260507173033 45 249 2.0 9.0 0.00 0.00 0.00 61 1004.5
20260507171531 44 238 3.0 7.0 0.00 0.00 0.00 60 1004.6
20260507170028 46 302 2.0 9.0 0.00 0.00 0.00 58 1004.5
20260507164530 44 234 2.0 7.0 0.00 0.00 0.00 62 1004.7
20260507163030 43 266 2.0 8.0 0.00 0.00 0.00 71 1004.9
20260507161530 40 242 2.0 9.0 0.00 0.00 0.00 78 1005.1
20260507160028 41 314 1.0 9.0 0.00 0.00 0.00 74 1004.9
20260507154526 43 222 2.0 7.0 0.00 0.00 0.00 67 1004.7
20260507153030 44 224 3.0 8.0 0.00 0.00 0.00 65 1004.7
20260507151528 45 294 2.0 7.0 0.00 0.00 0.00 63 1004.4
20260507150028 47 284 2.0 9.0 0.00 0.00 0.00 60 1004.2
20260507144526 46 244 1.0 6.0 0.00 0.00 0.00 60 1004.2
20260507143028 47 256 2.0 8.0 0.00 0.00 0.00 58 1004.1
20260507141530 48 246 1.0 6.0 0.00 0.00 0.00 60 1003.9
20260507140029 43 296 2.0 9.0 0.00 0.00 0.00 63 1004.2
20260507134526 44 256 2.0 6.0 0.00 0.00 0.00 61 1004.2
20260507133030 46 277 1.0 3.0 0.00 0.00 0.00 62 1004.0
20260507131532 43 251 0.0 2.0 0.00 0.00 0.00 68 1004.1
20260507130029 41 0 0.0 4.0 0.00 0.00 0.00 72 1004.2
20260507124527 42 281 1.0 4.0 0.00 0.00 0.00 71 1004.2
20260507123033 42 0 1.0 3.0 0.00 0.00 0.00 72 1004.2
20260507121539 41 0 0.0 7.0 0.00 0.00 0.00 77 1004.3
20260507120029 41 0 0.0 2.0 0.00 0.00 0.00 79 1004.2
20260507114527 40 0 0.0 3.0 0.00 0.00 0.00 84 1004.3
20260507113033 40 0 0.0 1.0 0.00 0.00 0.00 87 1004.2
20260507111530 40 0 0.0 1.0 0.00 0.00 0.00 89 1004.2
20260507110031 39 0 0.0 3.0 0.00 0.00 0.00 90 1004.0
20260507104531 40 0 0.0 0.0 0.00 0.00 0.00 91 1003.8
20260507101536 39 0 0.0 0.0 0.00 0.00 0.00 92 1003.5
20260507083036 40 0 0.0 1.0 0.00 0.00 0.00 90 1004.2
20260507081529 40 0 0.0 0.0 0.00 0.00 0.00 89 1004.0
20260507080028 40 0 0.0 0.0 0.00 0.00 0.00 87 1004.3
20260507074529 40 0 0.0 1.0 0.00 0.00 0.00 87 1004.4
20260507073029 41 0 0.0 2.0 0.00 0.00 0.00 86 1004.4
20260507071535 41 0 0.0 2.0 0.00 0.00 0.00 87 1004.6
20260507070027 41 0 0.0 3.0 0.00 0.00 0.00 88 1004.6
20260507064530 41 279 0.0 2.0 0.00 0.00 0.00 88 1004.7
20260507063029 41 0 0.0 2.0 0.00 0.00 0.00 89 1004.8
20260507061532 41 0 0.0 3.0 0.00 0.00 0.00 87 1004.7
20260507060027 41 0 0.0 2.0 0.00 0.00 0.00 87 1004.9
20260507054530 41 0 0.0 1.0 0.00 0.00 0.00 88 1005.1
20260507053028 41 0 0.0 2.0 0.00 0.00 0.00 88 1005.2
20260507051529 41 0 0.0 2.0 0.00 0.00 0.00 87 1005.3
20260507050029 41 0 0.0 2.0 0.00 0.00 0.00 87 1005.5
20260507044530 41 0 0.0 3.0 0.00 0.00 0.00 87 1005.6
20260507043035 41 327 0.0 2.0 0.00 0.00 0.00 88 1005.8
20260507041528 41 0 0.0 2.0 0.00 0.00 0.00 88 1005.9
20260507040028 40 0 0.0 3.0 0.00 0.00 0.00 89 1006.0
20260507034527 40 0 0.0 1.0 0.00 0.00 0.00 88 1006.1